Location: Hackbridge
(51.3833°N, 0.1500°W)
Time: 14:05:08
(UTC+00:00)

STARLINK-29 - Pass Details

Date: 13 October 2019
Orbit: 437 x 449 km, 53.0° (Epoch: 11 November)

Event Time Altitude Azimuth Distance (km) Brightness Sun altitude
Rises 17:45:24 0° 254° (WSW) 2,423 9.1 -5.9°
Reaches altitude 10° 17:47:31 10° 254° (WSW) 1,557 7.6 -6.2°
Maximum altitude 17:51:01 87° 342° (NNW) 449 3.2 -6.8°
Drops below altitude 10° 17:54:33 10° 74° (ENE) 1,568 5.3 -7.3°
Enters shadow 17:54:42 - 74° (ENE) 1,625 5.4 -7.4°
